Wetterdaten: Sonntag, 19.08.2012
Datum Zeit Temperatur Luftfeuchte Regen Wind Richtung Richtung Taupunkt Windchill Windben
19.08.2012 00:00 14,5 C 88 % 0,0 l/m 0,0 km/h (0 Bft) NW 315 12,5 C 14,2 C 0,0 km/h (0 Bft)
19.08.2012 00:05 14,6 C 88 % 0,0 l/m 0,0 km/h (0 Bft) W-NW 292 12,6 C 14,1 C 0,0 km/h (0 Bft)
19.08.2012 00:10 14,5 C 89 % 0,0 l/m 0,0 km/h (0 Bft) N-NW 337 12,7 C 14,1 C 0,0 km/h (0 Bft)
19.08.2012 00:15 14,6 C 89 % 0,0 l/m 0,0 km/h (0 Bft) W 270 12,8 C 14,0 C 0,0 km/h (0 Bft)
19.08.2012 00:20 14,5 C 89 % 0,0 l/m 0,0 km/h (0 Bft) NO 45 12,7 C 14,0 C 0,0 km/h (0 Bft)
19.08.2012 00:25 14,3 C 89 % 0,0 l/m 0,2 km/h (0 Bft) NO 45 12,5 C 14,0 C 0,0 km/h (0 Bft)
19.08.2012 00:30 14,3 C 89 % 0,0 l/m 0,2 km/h (0 Bft) N 360 12,5 C 13,9 C 0,0 km/h (0 Bft)
19.08.2012 00:35 14,2 C 89 % 0,0 l/m 0,0 km/h (0 Bft) NW 315 12,4 C 13,9 C 0,0 km/h (0 Bft)
19.08.2012 00:40 14,1 C 89 % 0,0 l/m 0,0 km/h (0 Bft) O-SO 112 12,3 C 13,8 C 0,0 km/h (0 Bft)
19.08.2012 00:45 14,1 C 89 % 0,0 l/m 0,0 km/h (0 Bft) SO 135 12,3 C 13,7 C 0,0 km/h (0 Bft)
19.08.2012 00:50 14,1 C 89 % 0,0 l/m 0,0 km/h (0 Bft) NO 45 12,3 C 13,6 C 0,0 km/h (0 Bft)
19.08.2012 00:55 13,9 C 89 % 0,0 l/m 0,0 km/h (0 Bft) S-SW 202 12,1 C 13,4 C 0,0 km/h (0 Bft)
19.08.2012 01:00 13,9 C 89 % 0,0 l/m 0,0 km/h (0 Bft) SO 135 12,1 C 13,4 C 0,0 km/h (0 Bft)
19.08.2012 01:05 14,0 C 89 % 0,0 l/m 0,0 km/h (0 Bft) O 90 12,2 C 13,4 C 0,0 km/h (0 Bft)
19.08.2012 01:10 13,9 C 89 % 0,0 l/m 0,0 km/h (0 Bft) W-SW 247 12,1 C 13,5 C 0,0 km/h (0 Bft)
19.08.2012 01:15 13,8 C 89 % 0,0 l/m 0,0 km/h (0 Bft) N-NO 22 12,0 C 13,4 C 0,0 km/h (0 Bft)
19.08.2012 01:20 14,1 C 89 % 0,0 l/m 0,2 km/h (0 Bft) N-NO 22 12,3 C 13,5 C 0,0 km/h (0 Bft)
19.08.2012 01:25 14,1 C 89 % 0,0 l/m 0,2 km/h (0 Bft) O-SO 112 12,3 C 13,5 C 1,8 km/h (1 Bft)
19.08.2012 01:30 13,8 C 89 % 0,0 l/m 0,2 km/h (0 Bft) N-NO 22 12,0 C 13,4 C 0,0 km/h (0 Bft)
19.08.2012 01:35 13,6 C 89 % 0,0 l/m 0,2 km/h (0 Bft) W 270 11,8 C 13,4 C 0,0 km/h (0 Bft)
19.08.2012 01:40 13,5 C 89 % 0,0 l/m 0,0 km/h (0 Bft) W-NW 292 11,7 C 13,3 C 0,0 km/h (0 Bft)
19.08.2012 01:45 13,6 C 90 % 0,0 l/m 0,2 km/h (0 Bft) N-NO 22 12,0 C 13,2 C 0,0 km/h (0 Bft)
19.08.2012 01:50 13,5 C 90 % 0,0 l/m 0,2 km/h (0 Bft) S-SW 202 11,9 C 13,2 C 0,0 km/h (0 Bft)
19.08.2012 01:55 13,4 C 89 % 0,0 l/m 0,0 km/h (0 Bft) W-SW 247 11,6 C 13,1 C 0,0 km/h (0 Bft)
19.08.2012 02:00 13,3 C 89 % 0,0 l/m 0,0 km/h (0 Bft) S-SW 202 11,5 C 13,0 C 0,0 km/h (0 Bft)
19.08.2012 02:05 13,2 C 89 % 0,0 l/m 0,0 km/h (0 Bft) NW 315 11,4 C 12,9 C 0,0 km/h (0 Bft)
19.08.2012 02:10 13,6 C 91 % 0,0 l/m 0,2 km/h (0 Bft) N 360 12,2 C 12,9 C 0,0 km/h (0 Bft)
19.08.2012 02:15 13,7 C 91 % 0,0 l/m 0,3 km/h (0 Bft) SO 135 12,3 C 13,0 C 3,1 km/h (1 Bft)
19.08.2012 02:20 13,6 C 91 % 0,0 l/m 0,3 km/h (0 Bft) S-SO 157 12,2 C 13,1 C 0,0 km/h (0 Bft)
19.08.2012 02:25 13,3 C 90 % 0,0 l/m 0,0 km/h (0 Bft) S 180 11,7 C 13,0 C 0,0 km/h (0 Bft)
19.08.2012 02:30 13,2 C 90 % 0,0 l/m 0,0 km/h (0 Bft) N-NO 22 11,6 C 13,0 C 0,0 km/h (0 Bft)
19.08.2012 02:35 13,6 C 90 % 0,0 l/m 0,2 km/h (0 Bft) N-NO 22 12,0 C 13,0 C 0,0 km/h (0 Bft)
19.08.2012 02:40 13,6 C 90 % 0,0 l/m 0,2 km/h (0 Bft) SO 135 12,0 C 13,1 C 0,0 km/h (0 Bft)
19.08.2012 02:45 13,3 C 90 % 0,0 l/m 0,0 km/h (0 Bft) N-NW 337 11,7 C 13,0 C 0,0 km/h (0 Bft)
19.08.2012 02:50 13,3 C 90 % 0,0 l/m 0,0 km/h (0 Bft) S 180 11,7 C 13,0 C 0,0 km/h (0 Bft)
19.08.2012 02:55 13,2 C 90 % 0,0 l/m 0,0 km/h (0 Bft) NO 45 11,6 C 12,9 C 0,0 km/h (0 Bft)
19.08.2012 03:00 13,2 C 90 % 0,0 l/m 0,0 km/h (0 Bft) SO 135 11,6 C 12,9 C 0,0 km/h (0 Bft)
19.08.2012 03:05 13,1 C 90 % 0,0 l/m 0,0 km/h (0 Bft) SO 135 11,5 C 12,9 C 0,0 km/h (0 Bft)
19.08.2012 03:10 13,1 C 90 % 0,0 l/m 0,0 km/h (0 Bft) N-NW 337 11,5 C 12,9 C 0,0 km/h (0 Bft)
19.08.2012 03:15 12,9 C 91 % 0,0 l/m 0,0 km/h (0 Bft) N-NO 22 11,5 C 12,7 C 0,0 km/h (0 Bft)
19.08.2012 03:20 13,1 C 90 % 0,0 l/m 0,0 km/h (0 Bft) N-NW 337 11,5 C 12,7 C 0,0 km/h (0 Bft)
19.08.2012 03:25 13,0 C 90 % 0,0 l/m 0,0 km/h (0 Bft) W 270 11,4 C 12,7 C 0,0 km/h (0 Bft)
19.08.2012 03:30 13,0 C 90 % 0,0 l/m 0,0 km/h (0 Bft) SO 135 11,4 C 12,8 C 0,0 km/h (0 Bft)
19.08.2012 03:35 12,8 C 91 % 0,0 l/m 0,0 km/h (0 Bft) O 90 11,4 C 12,7 C 0,0 km/h (0 Bft)
19.08.2012 03:40 12,8 C 91 % 0,0 l/m 0,0 km/h (0 Bft) W-NW 292 11,4 C 12,6 C 0,0 km/h (0 Bft)
19.08.2012 03:45 12,8 C 91 % 0,0 l/m 0,0 km/h (0 Bft) N-NO 22 11,4 C 12,4 C 0,0 km/h (0 Bft)
19.08.2012 03:50 12,9 C 91 % 0,0 l/m 0,0 km/h (0 Bft) N-NO 22 11,5 C 12,4 C 0,0 km/h (0 Bft)
19.08.2012 03:55 12,9 C 91 % 0,0 l/m 0,0 km/h (0 Bft) O 90 11,5 C 12,5 C 0,0 km/h (0 Bft)
19.08.2012 04:00 12,6 C 91 % 0,0 l/m 0,0 km/h (0 Bft) S-SW 202 11,2 C 12,5 C 0,0 km/h (0 Bft)
19.08.2012 04:05 12,5 C 91 % 0,0 l/m 0,2 km/h (0 Bft) O-SO 112 11,1 C 12,5 C 0,0 km/h (0 Bft)
19.08.2012 04:10 12,5 C 91 % 0,0 l/m 0,2 km/h (0 Bft) S 180 11,1 C 12,4 C 0,0 km/h (0 Bft)
19.08.2012 04:15 12,1 C 91 % 0,0 l/m 0,0 km/h (0 Bft) W-NW 292 10,7 C 12,2 C 0,0 km/h (0 Bft)
19.08.2012 04:20 12,1 C 91 % 0,0 l/m 0,0 km/h (0 Bft) NW 315 10,7 C 12,1 C 0,0 km/h (0 Bft)
19.08.2012 04:25 12,1 C 91 % 0,0 l/m 0,0 km/h (0 Bft) N-NW 337 10,7 C 11,9 C 0,0 km/h (0 Bft)
19.08.2012 04:30 11,9 C 91 % 0,0 l/m 0,0 km/h (0 Bft) N-NW 337 10,5 C 11,7 C 0,0 km/h (0 Bft)
19.08.2012 04:35 11,9 C 91 % 0,0 l/m 0,0 km/h (0 Bft) N 360 10,5 C 11,7 C 0,0 km/h (0 Bft)
19.08.2012 04:40 12,0 C 91 % 0,0 l/m 0,0 km/h (0 Bft) W-NW 292 10,6 C 11,7 C 0,0 km/h (0 Bft)
19.08.2012 04:45 11,9 C 91 % 0,0 l/m 0,0 km/h (0 Bft) N-NO 22 10,5 C 11,9 C 0,0 km/h (0 Bft)
19.08.2012 04:50 12,1 C 91 % 0,0 l/m 0,0 km/h (0 Bft) N 360 10,7 C 11,9 C 0,0 km/h (0 Bft)
19.08.2012 04:55 12,0 C 91 % 0,0 l/m 0,0 km/h (0 Bft) N-NW 337 10,6 C 11,8 C 0,0 km/h (0 Bft)
19.08.2012 05:00 12,2 C 92 % 0,0 l/m 0,0 km/h (0 Bft) N 360 10,9 C 11,8 C 0,0 km/h (0 Bft)
19.08.2012 05:05 11,9 C 92 % 0,0 l/m 0,0 km/h (0 Bft) N 360 10,6 C 11,8 C 0,0 km/h (0 Bft)
19.08.2012 05:10 11,9 C 92 % 0,0 l/m 0,0 km/h (0 Bft) N-NO 22 10,6 C 11,7 C 0,0 km/h (0 Bft)
19.08.2012 05:15 12,1 C 92 % 0,0 l/m 0,0 km/h (0 Bft) N 360 10,8 C 11,7 C 0,0 km/h (0 Bft)
19.08.2012 05:20 11,9 C 92 % 0,0 l/m 0,0 km/h (0 Bft) NW 315 10,6 C 11,7 C 0,0 km/h (0 Bft)
19.08.2012 05:25 11,7 C 92 % 0,0 l/m 0,0 km/h (0 Bft) N 360 10,4 C 11,5 C 0,0 km/h (0 Bft)
19.08.2012 05:30 11,9 C 92 % 0,0 l/m 0,0 km/h (0 Bft) N-NO 22 10,6 C 11,6 C 0,0 km/h (0 Bft)
19.08.2012 05:35 11,8 C 92 % 0,0 l/m 0,0 km/h (0 Bft) N 360 10,5 C 11,6 C 0,0 km/h (0 Bft)
19.08.2012 05:40 11,6 C 92 % 0,0 l/m 0,0 km/h (0 Bft) N-NW 337 10,3 C 11,5 C 0,0 km/h (0 Bft)
19.08.2012 05:45 11,6 C 92 % 0,0 l/m 0,0 km/h (0 Bft) N 360 10,3 C 11,5 C 0,0 km/h (0 Bft)
19.08.2012 05:50 11,9 C 92 % 0,0 l/m 0,2 km/h (0 Bft) N 360 10,6 C 11,5 C 1,6 km/h (1 Bft)
19.08.2012 05:55 11,7 C 92 % 0,0 l/m 0,2 km/h (0 Bft) N 360 10,4 C 11,5 C 0,0 km/h (0 Bft)
19.08.2012 06:00 11,5 C 92 % 0,0 l/m 0,0 km/h (0 Bft) N 360 10,2 C 11,4 C 0,0 km/h (0 Bft)
19.08.2012 06:05 11,4 C 92 % 0,0 l/m 0,0 km/h (0 Bft) N-NW 337 10,1 C 11,2 C 0,0 km/h (0 Bft)
19.08.2012 06:10 11,2 C 92 % 0,0 l/m 0,0 km/h (0 Bft) N-NW 337 9,9 C 11,2 C 0,0 km/h (0 Bft)
19.08.2012 06:16 11,4 C 92 % 0,0 l/m 0,0 km/h (0 Bft) N-NW 337 10,1 C 11,1 C 0,0 km/h (0 Bft)
19.08.2012 06:20 11,4 C 92 % 0,0 l/m 0,0 km/h (0 Bft) N-NW 337 10,1 C 11,0 C 0,0 km/h (0 Bft)
19.08.2012 06:25 11,4 C 92 % 0,0 l/m 0,0 km/h (0 Bft) W-NW 292 10,1 C 11,1 C 0,0 km/h (0 Bft)
19.08.2012 06:30 11,6 C 92 % 0,0 l/m 0,0 km/h (0 Bft) NO 45 10,3 C 11,2 C 0,0 km/h (0 Bft)
19.08.2012 06:35 11,6 C 92 % 0,0 l/m 0,0 km/h (0 Bft) NO 45 10,3 C 11,2 C 0,0 km/h (0 Bft)
19.08.2012 06:40 11,5 C 92 % 0,0 l/m 0,0 km/h (0 Bft) S-SO 157 10,2 C 11,2 C 0,0 km/h (0 Bft)
19.08.2012 06:45 11,5 C 92 % 0,0 l/m 0,0 km/h (0 Bft) NO 45 10,2 C 11,3 C 0,0 km/h (0 Bft)
19.08.2012 06:50 11,4 C 92 % 0,0 l/m 0,0 km/h (0 Bft) N 360 10,1 C 12,3 C 0,0 km/h (0 Bft)
19.08.2012 06:55 11,5 C 92 % 0,0 l/m 0,0 km/h (0 Bft) W-SW 247 10,2 C 13,8 C 0,0 km/h (0 Bft)
19.08.2012 07:00 11,5 C 92 % 0,0 l/m 0,0 km/h (0 Bft) W-SW 247 10,2 C 14,6 C 0,0 km/h (0 Bft)
19.08.2012 07:05 11,7 C 92 % 0,0 l/m 0,3 km/h (0 Bft) N 360 10,4 C 13,7 C 2,4 km/h (1 Bft)
19.08.2012 07:10 12,1 C 92 % 0,0 l/m 0,6 km/h (0 Bft) N 360 10,8 C 13,0 C 0,0 km/h (0 Bft)
19.08.2012 07:15 12,3 C 92 % 0,0 l/m 0,8 km/h (0 Bft) W-NW 292 11,0 C 14,2 C 0,0 km/h (0 Bft)
19.08.2012 07:20 12,3 C 92 % 0,0 l/m 0,2 km/h (0 Bft) N-NW 337 11,0 C 15,7 C 0,0 km/h (0 Bft)
19.08.2012 07:25 12,4 C 92 % 0,0 l/m 0,0 km/h (0 Bft) N-NO 22 11,1 C 17,3 C 0,0 km/h (0 Bft)
19.08.2012 07:30 12,6 C 92 % 0,0 l/m 0,0 km/h (0 Bft) N-NO 22 11,3 C 18,5 C 0,0 km/h (0 Bft)
19.08.2012 07:35 13,1 C 91 % 0,0 l/m 0,0 km/h (0 Bft) N-NO 22 11,7 C 19,6 C 0,0 km/h (0 Bft)
19.08.2012 07:40 13,7 C 91 % 0,0 l/m 0,0 km/h (0 Bft) SO 135 12,3 C 20,4 C 0,0 km/h (0 Bft)
19.08.2012 07:45 15,2 C 89 % 0,0 l/m 0,0 km/h (0 Bft) N-NW 337 13,4 C 21,4 C 0,0 km/h (0 Bft)
19.08.2012 07:50 14,6 C 88 % 0,0 l/m 0,0 km/h (0 Bft) N 360 12,6 C 21,9 C 0,0 km/h (0 Bft)
19.08.2012 07:55 18,5 C 82 % 0,0 l/m 0,0 km/h (0 Bft) N 360 15,4 C 23,2 C 0,0 km/h (0 Bft)
19.08.2012 08:00 19,7 C 77 % 0,0 l/m 0,0 km/h (0 Bft) N-NO 22 15,5 C 23,4 C 0,0 km/h (0 Bft)
19.08.2012 08:05 19,9 C 67 % 0,0 l/m 0,3 km/h (0 Bft) N-NW 337 14,3 C 23,7 C 0,0 km/h (0 Bft)
19.08.2012 08:10 19,7 C 65 % 0,0 l/m 0,3 km/h (0 Bft) N-NO 22 14,4 C 23,8 C 0,0 km/h (0 Bft)
19.08.2012 08:15 22,3 C 66 % 0,0 l/m 0,2 km/h (0 Bft) N 360 16,2 C 24,3 C 0,0 km/h (0 Bft)
19.08.2012 08:20 23,1 C 60 % 0,0 l/m 0,2 km/h (0 Bft) N 360 14,9 C 25,1 C 0,0 km/h (0 Bft)
19.08.2012 08:25 23,5 C 58 % 0,0 l/m 0,5 km/h (0 Bft) NW 315 14,7 C 25,7 C 0,0 km/h (0 Bft)
19.08.2012 08:30 23,9 C 60 % 0,0 l/m 0,6 km/h (0 Bft) NO 45 15,7 C 25,8 C 0,0 km/h (0 Bft)
19.08.2012 08:35 23,9 C 57 % 0,0 l/m 0,3 km/h (0 Bft) O 90 15,6 C 27,2 C 0,0 km/h (0 Bft)
19.08.2012 08:40 23,5 C 56 % 0,0 l/m 0,0 km/h (0 Bft) S-SW 202 16,0 C 28,0 C 0,0 km/h (0 Bft)
19.08.2012 08:45 22,8 C 53 % 0,0 l/m 0,0 km/h (0 Bft) NO 45 15,6 C 29,1 C 0,0 km/h (0 Bft)
19.08.2012 08:50 22,7 C 50 % 0,0 l/m 0,2 km/h (0 Bft) W 270 15,1 C 29,6 C 1,8 km/h (1 Bft)
19.08.2012 08:55 22,7 C 50 % 0,0 l/m 0,5 km/h (0 Bft) N-NO 22 15,1 C 29,4 C 0,0 km/h (0 Bft)
19.08.2012 09:00 22,8 C 50 % 0,0 l/m 0,5 km/h (0 Bft) O 90 15,4 C 29,8 C 0,0 km/h (0 Bft)
19.08.2012 09:05 23,1 C 50 % 0,0 l/m 0,0 km/h (0 Bft) O-SO 112 15,7 C 30,8 C 0,0 km/h (0 Bft)
19.08.2012 09:10 23,1 C 48 % 0,0 l/m 0,0 km/h (0 Bft) NO 45 14,8 C 31,2 C 0,0 km/h (0 Bft)
19.08.2012 09:15 23,2 C 49 % 0,0 l/m 0,5 km/h (0 Bft) O-SO 112 15,7 C 31,2 C 0,0 km/h (0 Bft)
19.08.2012 09:20 23,4 C 47 % 0,0 l/m 0,5 km/h (0 Bft) N 360 15,1 C 31,4 C 1,9 km/h (1 Bft)
19.08.2012 09:25 23,9 C 47 % 0,0 l/m 0,3 km/h (0 Bft) N 360 15,6 C 31,7 C 2,6 km/h (1 Bft)
19.08.2012 09:30 24,0 C 45 % 0,0 l/m 0,3 km/h (0 Bft) N-NW 337 15,0 C 31,7 C 0,0 km/h (0 Bft)
19.08.2012 09:35 24,3 C 45 % 0,0 l/m 0,2 km/h (0 Bft) N 360 15,2 C 32,2 C 0,0 km/h (0 Bft)
19.08.2012 09:40 24,4 C 45 % 0,0 l/m 0,0 km/h (0 Bft) W-SW 247 15,1 C 32,5 C 0,0 km/h (0 Bft)
19.08.2012 09:45 24,8 C 45 % 0,0 l/m 0,2 km/h (0 Bft) NO 45 15,7 C 32,9 C 0,0 km/h (0 Bft)
19.08.2012 09:50 25,0 C 46 % 0,0 l/m 0,2 km/h (0 Bft) W-NW 292 15,8 C 33,2 C 0,0 km/h (0 Bft)
19.08.2012 09:55 25,6 C 46 % 0,0 l/m 0,2 km/h (0 Bft) W-SW 247 16,3 C 33,4 C 0,0 km/h (0 Bft)
19.08.2012 10:00 25,8 C 48 % 0,0 l/m 0,3 km/h (0 Bft) W-SW 247 17,4 C 33,6 C 2,1 km/h (1 Bft)
19.08.2012 10:05 26,2 C 46 % 0,0 l/m 0,3 km/h (0 Bft) N 360 16,6 C 33,5 C 0,0 km/h (0 Bft)
19.08.2012 10:10 26,5 C 45 % 0,0 l/m 0,5 km/h (0 Bft) S 180 16,6 C 33,5 C 0,0 km/h (0 Bft)
19.08.2012 10:15 26,7 C 46 % 0,0 l/m 0,5 km/h (0 Bft) NW 315 17,3 C 33,7 C 2,4 km/h (1 Bft)
19.08.2012 10:20 27,0 C 45 % 0,0 l/m 0,5 km/h (0 Bft) W 270 16,8 C 33,4 C 1,8 km/h (1 Bft)
19.08.2012 10:25 27,4 C 48 % 0,0 l/m 1,8 km/h (1 Bft) W-SW 247 18,0 C 33,2 C 4,3 km/h (1 Bft)
19.08.2012 10:30 27,6 C 45 % 0,0 l/m 2,3 km/h (1 Bft) W-SW 247 17,1 C 33,0 C 4,0 km/h (1 Bft)
19.08.2012 10:35 28,1 C 46 % 0,0 l/m 2,3 km/h (1 Bft) N-NO 22 17,4 C 32,9 C 0,0 km/h (0 Bft)
19.08.2012 10:40 28,2 C 47 % 0,0 l/m 1,9 km/h (1 Bft) W-SW 247 17,5 C 32,9 C 3,4 km/h (1 Bft)
19.08.2012 10:45 28,4 C 46 % 0,0 l/m 2,1 km/h (1 Bft) W-SW 247 16,7 C 32,8 C 6,6 km/h (2 Bft)
19.08.2012 10:50 28,9 C 46 % 0,0 l/m 2,7 km/h (1 Bft) S 180 17,5 C 32,9 C 3,1 km/h (1 Bft)
19.08.2012 10:55 29,1 C 44 % 0,0 l/m 2,1 km/h (1 Bft) W 270 16,6 C 33,3 C 4,7 km/h (1 Bft)
19.08.2012 11:00 29,2 C 45 % 0,0 l/m 2,1 km/h (1 Bft) S-SW 202 16,9 C 33,2 C 5,1 km/h (1 Bft)
19.08.2012 11:05 29,4 C 43 % 0,0 l/m 2,9 km/h (1 Bft) W-SW 247 16,1 C 33,1 C 1,6 km/h (1 Bft)
19.08.2012 11:10 29,5 C 44 % 0,0 l/m 2,6 km/h (1 Bft) N-NW 337 16,7 C 33,1 C 2,1 km/h (1 Bft)
19.08.2012 11:15 29,9 C 41 % 0,0 l/m 1,1 km/h (1 Bft) N-NO 22 15,6 C 33,7 C 0,0 km/h (0 Bft)
19.08.2012 11:20 29,8 C 40 % 0,0 l/m 0,6 km/h (0 Bft) N-NW 337 15,1 C 34,1 C 0,0 km/h (0 Bft)
19.08.2012 11:25 30,3 C 41 % 0,0 l/m 0,6 km/h (0 Bft) N-NW 337 15,7 C 34,5 C 2,1 km/h (1 Bft)
19.08.2012 11:30 30,3 C 41 % 0,0 l/m 1,0 km/h (0 Bft) N 360 15,6 C 34,4 C 1,9 km/h (1 Bft)
19.08.2012 11:35 30,3 C 41 % 0,0 l/m 1,1 km/h (1 Bft) N-NO 22 16,1 C 34,5 C 2,7 km/h (1 Bft)
19.08.2012 11:40 30,3 C 43 % 0,0 l/m 0,6 km/h (0 Bft) N 360 16,3 C 34,7 C 0,0 km/h (0 Bft)
19.08.2012 11:45 30,8 C 45 % 0,0 l/m 0,5 km/h (0 Bft) N-NW 337 17,5 C 35,3 C 0,0 km/h (0 Bft)
19.08.2012 11:50 30,9 C 45 % 0,0 l/m 0,6 km/h (0 Bft) W 270 17,6 C 35,3 C 0,0 km/h (0 Bft)
19.08.2012 11:55 31,1 C 44 % 0,0 l/m 1,1 km/h (1 Bft) W-SW 247 17,4 C 35,4 C 2,1 km/h (1 Bft)
19.08.2012 12:00 31,0 C 46 % 0,0 l/m 1,1 km/h (1 Bft) W-SW 247 18,0 C 35,5 C 0,0 km/h (0 Bft)
19.08.2012 12:05 31,4 C 44 % 0,0 l/m 1,1 km/h (1 Bft) S-SO 157 17,6 C 35,7 C 5,8 km/h (2 Bft)
19.08.2012 12:10 32,0 C 43 % 0,0 l/m 1,6 km/h (1 Bft) S 180 17,8 C 35,2 C 1,6 km/h (1 Bft)
19.08.2012 12:15 31,6 C 44 % 0,0 l/m 2,3 km/h (1 Bft) S 180 17,8 C 35,2 C 5,8 km/h (2 Bft)
19.08.2012 12:20 31,7 C 43 % 0,0 l/m 2,3 km/h (1 Bft) W 270 17,6 C 34,7 C 2,7 km/h (1 Bft)
19.08.2012 12:25 32,0 C 43 % 0,0 l/m 2,7 km/h (1 Bft) S-SO 157 17,8 C 34,6 C 1,6 km/h (1 Bft)
19.08.2012 12:30 32,3 C 44 % 0,0 l/m 2,1 km/h (1 Bft) SO 135 18,5 C 34,7 C 1,9 km/h (1 Bft)
19.08.2012 12:35 32,2 C 41 % 0,0 l/m 2,9 km/h (1 Bft) O 90 17,2 C 34,4 C 4,5 km/h (1 Bft)
19.08.2012 12:40 32,6 C 44 % 0,0 l/m 3,4 km/h (1 Bft) S 180 18,7 C 34,1 C 4,7 km/h (1 Bft)
19.08.2012 12:45 32,5 C 43 % 0,0 l/m 2,6 km/h (1 Bft) SO 135 18,3 C 34,3 C 0,0 km/h (0 Bft)
19.08.2012 12:50 32,7 C 44 % 0,0 l/m 2,4 km/h (1 Bft) S-SW 202 18,8 C 34,5 C 4,2 km/h (1 Bft)
19.08.2012 12:55 32,7 C 44 % 0,0 l/m 2,4 km/h (1 Bft) SO 135 18,8 C 34,6 C 2,3 km/h (1 Bft)
19.08.2012 13:00 32,5 C 40 % 0,0 l/m 2,6 km/h (1 Bft) W-SW 247 17,1 C 34,7 C 3,7 km/h (1 Bft)
19.08.2012 13:05 31,3 C 39 % 0,0 l/m 2,6 km/h (1 Bft) S 180 15,7 C 34,6 C 3,1 km/h (1 Bft)
19.08.2012 13:10 31,4 C 43 % 0,0 l/m 2,9 km/h (1 Bft) W 270 17,3 C 34,5 C 3,1 km/h (1 Bft)
19.08.2012 13:15 31,2 C 39 % 0,0 l/m 2,7 km/h (1 Bft) N-NW 337 15,6 C 34,4 C 4,0 km/h (1 Bft)
19.08.2012 13:20 31,5 C 41 % 0,0 l/m 2,6 km/h (1 Bft) NW 315 16,6 C 34,2 C 2,7 km/h (1 Bft)
19.08.2012 13:25 31,2 C 39 % 0,0 l/m 1,8 km/h (1 Bft) NO 45 15,6 C 33,7 C 3,2 km/h (1 Bft)
19.08.2012 13:30 31,3 C 36 % 0,0 l/m 1,9 km/h (1 Bft) N-NO 22 14,4 C 33,2 C 5,5 km/h (1 Bft)
19.08.2012 13:35 31,3 C 39 % 0,0 l/m 2,3 km/h (1 Bft) W-NW 292 15,7 C 32,6 C 6,3 km/h (2 Bft)
19.08.2012 13:40 31,3 C 35 % 0,0 l/m 2,6 km/h (1 Bft) O 90 14,0 C 32,0 C 2,6 km/h (1 Bft)
19.08.2012 13:45 31,3 C 35 % 0,0 l/m 2,9 km/h (1 Bft) NO 45 14,0 C 31,7 C 1,6 km/h (1 Bft)
19.08.2012 13:50 31,3 C 36 % 0,0 l/m 2,7 km/h (1 Bft) S-SO 157 14,4 C 32,1 C 3,4 km/h (1 Bft)
19.08.2012 13:55 31,8 C 36 % 0,0 l/m 1,9 km/h (1 Bft) NO 45 14,9 C 32,9 C 0,0 km/h (0 Bft)
19.08.2012 14:00 32,2 C 36 % 0,0 l/m 1,6 km/h (1 Bft) N-NW 337 15,2 C 33,8 C 1,6 km/h (1 Bft)
19.08.2012 14:05 31,7 C 36 % 0,0 l/m 1,4 km/h (1 Bft) S-SW 202 14,8 C 34,6 C 6,8 km/h (2 Bft)
19.08.2012 14:10 31,5 C 36 % 0,0 l/m 1,9 km/h (1 Bft) N-NO 22 14,6 C 34,6 C 2,1 km/h (1 Bft)
19.08.2012 14:15 31,6 C 37 % 0,0 l/m 2,4 km/h (1 Bft) W 270 15,1 C 34,7 C 6,9 km/h (2 Bft)
19.08.2012 14:20 31,5 C 37 % 0,0 l/m 2,4 km/h (1 Bft) S-SW 202 15,0 C 34,7 C 3,2 km/h (1 Bft)
19.08.2012 14:25 31,9 C 38 % 0,0 l/m 3,2 km/h (1 Bft) W-NW 292 15,8 C 34,6 C 8,7 km/h (2 Bft)
19.08.2012 14:30 31,8 C 36 % 0,0 l/m 3,2 km/h (1 Bft) N-NW 337 14,9 C 34,5 C 3,9 km/h (1 Bft)
19.08.2012 14:35 32,0 C 36 % 0,0 l/m 2,6 km/h (1 Bft) O-NO 67 15,0 C 34,4 C 0,0 km/h (0 Bft)
19.08.2012 14:40 31,9 C 35 % 0,0 l/m 1,4 km/h (1 Bft) W 270 14,5 C 35,0 C 5,1 km/h (1 Bft)
19.08.2012 14:45 31,9 C 36 % 0,0 l/m 2,6 km/h (1 Bft) W-NW 292 14,9 C 34,6 C 5,1 km/h (1 Bft)
19.08.2012 14:50 32,1 C 35 % 0,0 l/m 3,2 km/h (1 Bft) W-SW 247 14,7 C 34,5 C 7,2 km/h (2 Bft)
19.08.2012 14:55 31,9 C 34 % 0,0 l/m 3,9 km/h (1 Bft) W-NW 292 14,1 C 34,1 C 5,8 km/h (2 Bft)
19.08.2012 15:00 32,0 C 34 % 0,0 l/m 4,3 km/h (1 Bft) W-SW 247 14,1 C 34,0 C 4,3 km/h (1 Bft)
19.08.2012 15:05 32,2 C 33 % 0,0 l/m 3,1 km/h (1 Bft) W-NW 292 13,9 C 34,3 C 3,4 km/h (1 Bft)
19.08.2012 15:10 32,1 C 34 % 0,0 l/m 2,7 km/h (1 Bft) NW 315 14,2 C 34,5 C 3,9 km/h (1 Bft)
19.08.2012 15:15 31,8 C 35 % 0,0 l/m 2,7 km/h (1 Bft) W-NW 292 14,4 C 34,7 C 4,5 km/h (1 Bft)
19.08.2012 15:20 31,9 C 35 % 0,0 l/m 2,6 km/h (1 Bft) W 270 14,5 C 34,6 C 2,1 km/h (1 Bft)
19.08.2012 15:25 32,1 C 32 % 0,0 l/m 2,9 km/h (1 Bft) W-SW 247 13,3 C 34,6 C 0,0 km/h (0 Bft)
19.08.2012 15:30 32,2 C 31 % 0,0 l/m 3,1 km/h (1 Bft) S-SW 202 12,9 C 34,5 C 5,1 km/h (1 Bft)
19.08.2012 15:35 32,2 C 33 % 0,0 l/m 3,2 km/h (1 Bft) W-SW 247 13,9 C 34,4 C 7,1 km/h (2 Bft)
19.08.2012 15:40 31,9 C 31 % 0,0 l/m 3,7 km/h (1 Bft) N-NW 337 12,6 C 34,3 C 3,1 km/h (1 Bft)
19.08.2012 15:45 31,8 C 33 % 0,0 l/m 3,5 km/h (1 Bft) W-NW 292 13,5 C 34,4 C 3,2 km/h (1 Bft)
19.08.2012 15:50 32,1 C 34 % 0,0 l/m 2,3 km/h (1 Bft) W-NW 292 14,2 C 34,5 C 6,1 km/h (2 Bft)
19.08.2012 15:55 31,7 C 35 % 0,0 l/m 2,4 km/h (1 Bft) SW 225 14,3 C 34,6 C 5,5 km/h (1 Bft)
19.08.2012 16:00 31,6 C 35 % 0,0 l/m 2,9 km/h (1 Bft) W 270 14,2 C 34,6 C 7,1 km/h (2 Bft)
19.08.2012 16:05 31,5 C 37 % 0,0 l/m 3,1 km/h (1 Bft) W-NW 292 15,0 C 34,4 C 4,8 km/h (1 Bft)
19.08.2012 16:10 31,7 C 39 % 0,0 l/m 3,4 km/h (1 Bft) N-NO 22 16,0 C 34,4 C 3,5 km/h (1 Bft)
19.08.2012 16:15 31,4 C 36 % 0,0 l/m 3,5 km/h (1 Bft) N 360 14,5 C 34,2 C 10,6 km/h (2 Bft)
19.08.2012 16:20 31,2 C 36 % 0,0 l/m 3,7 km/h (1 Bft) N-NO 22 14,3 C 33,9 C 3,1 km/h (1 Bft)
19.08.2012 16:25 31,5 C 36 % 0,0 l/m 2,7 km/h (1 Bft) W-NW 292 14,6 C 34,0 C 3,4 km/h (1 Bft)
19.08.2012 16:30 31,4 C 35 % 0,0 l/m 2,1 km/h (1 Bft) NW 315 14,1 C 34,3 C 2,4 km/h (1 Bft)
19.08.2012 16:35 30,8 C 36 % 0,0 l/m 3,2 km/h (1 Bft) W-SW 247 14,0 C 34,2 C 2,9 km/h (1 Bft)
19.08.2012 16:40 30,3 C 36 % 0,0 l/m 3,7 km/h (1 Bft) W-SW 247 13,5 C 34,1 C 5,1 km/h (1 Bft)
19.08.2012 16:45 30,1 C 39 % 0,0 l/m 3,9 km/h (1 Bft) W-NW 292 14,6 C 34,0 C 5,3 km/h (1 Bft)
19.08.2012 16:50 29,7 C 39 % 0,0 l/m 3,5 km/h (1 Bft) W-NW 292 14,2 C 34,0 C 0,0 km/h (0 Bft)
19.08.2012 16:55 29,5 C 40 % 0,0 l/m 2,7 km/h (1 Bft) N-NO 22 14,5 C 34,3 C 1,9 km/h (1 Bft)
19.08.2012 17:00 29,4 C 43 % 0,0 l/m 3,1 km/h (1 Bft) W-NW 292 15,5 C 34,3 C 4,8 km/h (1 Bft)
19.08.2012 17:05 29,0 C 44 % 0,0 l/m 2,9 km/h (1 Bft) N-NW 337 15,5 C 34,3 C 3,7 km/h (1 Bft)
19.08.2012 17:10 28,9 C 45 % 0,0 l/m 2,7 km/h (1 Bft) O 90 15,8 C 34,3 C 0,0 km/h (0 Bft)
19.08.2012 17:15 28,6 C 46 % 0,0 l/m 3,1 km/h (1 Bft) N 360 15,8 C 34,3 C 2,4 km/h (1 Bft)
19.08.2012 17:20 28,3 C 46 % 0,0 l/m 2,6 km/h (1 Bft) N-NW 337 15,6 C 34,3 C 1,6 km/h (1 Bft)
19.08.2012 17:25 28,1 C 43 % 0,0 l/m 2,4 km/h (1 Bft) W-NW 292 14,3 C 34,3 C 0,0 km/h (0 Bft)
19.08.2012 17:30 27,8 C 43 % 0,0 l/m 1,9 km/h (1 Bft) N 360 14,1 C 34,5 C 2,6 km/h (1 Bft)
19.08.2012 17:35 27,6 C 41 % 0,0 l/m 1,1 km/h (1 Bft) N 360 13,1 C 34,5 C 4,0 km/h (1 Bft)
19.08.2012 17:40 27,8 C 40 % 0,0 l/m 1,3 km/h (1 Bft) N 360 12,9 C 34,7 C 1,8 km/h (1 Bft)
19.08.2012 17:45 27,6 C 42 % 0,0 l/m 1,0 km/h (0 Bft) N-NO 22 13,5 C 34,9 C 0,0 km/h (0 Bft)
19.08.2012 17:50 27,7 C 42 % 0,0 l/m 1,3 km/h (1 Bft) N-NO 22 13,6 C 34,9 C 2,1 km/h (1 Bft)
19.08.2012 17:55 27,7 C 42 % 0,0 l/m 1,6 km/h (1 Bft) SO 135 13,6 C 34,8 C 1,6 km/h (1 Bft)
19.08.2012 18:00 27,6 C 43 % 0,0 l/m 1,1 km/h (1 Bft) O-SO 112 13,9 C 34,9 C 0,0 km/h (0 Bft)
19.08.2012 18:05 27,5 C 45 % 0,0 l/m 1,0 km/h (0 Bft) N-NW 337 14,5 C 34,9 C 3,9 km/h (1 Bft)
19.08.2012 18:10 27,4 C 47 % 0,0 l/m 1,4 km/h (1 Bft) N 360 15,1 C 34,7 C 3,9 km/h (1 Bft)
19.08.2012 18:15 27,3 C 48 % 0,0 l/m 1,6 km/h (1 Bft) NO 45 15,3 C 34,6 C 0,0 km/h (0 Bft)
19.08.2012 18:20 27,2 C 48 % 0,0 l/m 1,6 km/h (1 Bft) NO 45 15,2 C 34,4 C 0,0 km/h (0 Bft)
19.08.2012 18:25 27,3 C 48 % 0,0 l/m 1,1 km/h (1 Bft) NO 45 15,3 C 34,3 C 0,0 km/h (0 Bft)
19.08.2012 18:30 27,1 C 49 % 0,0 l/m 0,5 km/h (0 Bft) N 360 15,4 C 34,3 C 0,0 km/h (0 Bft)
19.08.2012 18:35 26,8 C 49 % 0,0 l/m 0,3 km/h (0 Bft) W 270 15,2 C 34,3 C 0,0 km/h (0 Bft)
19.08.2012 18:40 26,6 C 49 % 0,0 l/m 0,5 km/h (0 Bft) NO 45 15,0 C 34,4 C 3,9 km/h (1 Bft)
19.08.2012 18:45 26,7 C 49 % 0,0 l/m 0,8 km/h (0 Bft) N-NW 337 15,1 C 34,0 C 3,4 km/h (1 Bft)
19.08.2012 18:50 26,5 C 49 % 0,0 l/m 1,0 km/h (0 Bft) N-NO 22 14,9 C 33,7 C 0,0 km/h (0 Bft)
19.08.2012 18:55 26,6 C 49 % 0,0 l/m 1,0 km/h (0 Bft) N-NW 337 15,0 C 33,5 C 2,7 km/h (1 Bft)
19.08.2012 19:00 26,4 C 50 % 0,0 l/m 0,8 km/h (0 Bft) N-NW 337 15,1 C 33,2 C 1,6 km/h (1 Bft)
19.08.2012 19:05 26,5 C 49 % 0,0 l/m 0,6 km/h (0 Bft) O 90 14,9 C 32,9 C 0,0 km/h (0 Bft)
19.08.2012 19:10 26,1 C 50 % 0,0 l/m 0,5 km/h (0 Bft) O-SO 112 14,8 C 32,7 C 0,0 km/h (0 Bft)
19.08.2012 19:15 25,9 C 53 % 0,0 l/m 0,6 km/h (0 Bft) N-NO 22 15,6 C 32,3 C 2,3 km/h (1 Bft)
19.08.2012 19:20 25,9 C 52 % 0,0 l/m 0,6 km/h (0 Bft) N-NO 22 15,3 C 31,8 C 2,3 km/h (1 Bft)
19.08.2012 19:25 25,7 C 53 % 0,0 l/m 0,6 km/h (0 Bft) N-NO 22 15,4 C 31,2 C 2,1 km/h (1 Bft)
19.08.2012 19:30 25,6 C 54 % 0,0 l/m 0,6 km/h (0 Bft) N 360 15,6 C 30,8 C 2,1 km/h (1 Bft)
19.08.2012 19:35 25,5 C 54 % 0,0 l/m 0,2 km/h (0 Bft) N 360 15,5 C 30,1 C 0,0 km/h (0 Bft)
19.08.2012 19:40 25,2 C 55 % 0,0 l/m 0,2 km/h (0 Bft) N-NO 22 15,5 C 29,5 C 0,0 km/h (0 Bft)
19.08.2012 19:45 24,8 C 57 % 0,0 l/m 0,0 km/h (0 Bft) N 360 15,7 C 29,0 C 0,0 km/h (0 Bft)
19.08.2012 19:50 24,6 C 57 % 0,0 l/m 0,0 km/h (0 Bft) N 360 15,5 C 28,5 C 0,0 km/h (0 Bft)
19.08.2012 19:55 24,3 C 57 % 0,0 l/m 0,0 km/h (0 Bft) N 360 15,2 C 27,8 C 0,0 km/h (0 Bft)
19.08.2012 20:00 24,2 C 58 % 0,0 l/m 0,2 km/h (0 Bft) N-NO 22 15,4 C 27,4 C 0,0 km/h (0 Bft)
19.08.2012 20:05 23,9 C 58 % 0,0 l/m 0,2 km/h (0 Bft) NO 45 15,1 C 26,4 C 0,0 km/h (0 Bft)
19.08.2012 20:10 23,3 C 60 % 0,0 l/m 0,0 km/h (0 Bft) N 360 15,1 C 25,7 C 0,0 km/h (0 Bft)
19.08.2012 20:15 22,3 C 64 % 0,0 l/m 0,0 km/h (0 Bft) NO 45 15,2 C 24,6 C 0,0 km/h (0 Bft)
19.08.2012 20:20 21,8 C 66 % 0,0 l/m 0,0 km/h (0 Bft) NO 45 15,2 C 23,7 C 0,0 km/h (0 Bft)
19.08.2012 20:25 21,8 C 66 % 0,0 l/m 0,0 km/h (0 Bft) NO 45 15,2 C 22,9 C 0,0 km/h (0 Bft)
19.08.2012 20:30 22,1 C 65 % 0,0 l/m 0,2 km/h (0 Bft) N 360 15,2 C 22,2 C 0,0 km/h (0 Bft)
19.08.2012 20:35 22,3 C 64 % 0,0 l/m 0,2 km/h (0 Bft) O 90 15,2 C 21,6 C 0,0 km/h (0 Bft)
19.08.2012 20:40 21,9 C 65 % 0,0 l/m 0,0 km/h (0 Bft) N-NO 22 15,0 C 21,3 C 0,0 km/h (0 Bft)
19.08.2012 20:45 20,9 C 68 % 0,0 l/m 0,2 km/h (0 Bft) O-NO 67 14,8 C 20,8 C 0,0 km/h (0 Bft)
19.08.2012 20:50 20,6 C 70 % 0,0 l/m 0,3 km/h (0 Bft) NO 45 14,9 C 20,5 C 1,8 km/h (1 Bft)
19.08.2012 20:55 20,5 C 70 % 0,0 l/m 0,3 km/h (0 Bft) NO 45 14,8 C 20,0 C 2,4 km/h (1 Bft)
19.08.2012 21:00 20,5 C 70 % 0,0 l/m 0,3 km/h (0 Bft) NO 45 14,8 C 19,8 C 0,0 km/h (0 Bft)
19.08.2012 21:05 19,9 C 71 % 0,0 l/m 0,2 km/h (0 Bft) NO 45 14,5 C 19,6 C 1,6 km/h (1 Bft)
19.08.2012 21:10 20,3 C 70 % 0,0 l/m 0,0 km/h (0 Bft) NO 45 14,6 C 19,5 C 0,0 km/h (0 Bft)
19.08.2012 21:15 20,2 C 69 % 0,0 l/m 0,0 km/h (0 Bft) NO 45 14,3 C 19,5 C 0,0 km/h (0 Bft)
19.08.2012 21:20 19,7 C 70 % 0,0 l/m 0,0 km/h (0 Bft) W 270 14,1 C 19,4 C 0,0 km/h (0 Bft)
19.08.2012 21:25 19,0 C 72 % 0,0 l/m 0,0 km/h (0 Bft) N 360 13,8 C 19,0 C 0,0 km/h (0 Bft)
19.08.2012 21:30 18,8 C 73 % 0,0 l/m 0,0 km/h (0 Bft) N-NO 22 13,9 C 18,7 C 0,0 km/h (0 Bft)
19.08.2012 21:35 18,5 C 73 % 0,0 l/m 0,0 km/h (0 Bft) S 180 13,6 C 18,3 C 0,0 km/h (0 Bft)
19.08.2012 21:40 18,2 C 74 % 0,0 l/m 0,0 km/h (0 Bft) O-SO 112 13,5 C 18,1 C 0,0 km/h (0 Bft)
19.08.2012 21:45 18,0 C 75 % 0,0 l/m 0,0 km/h (0 Bft) N 360 13,5 C 17,7 C 0,0 km/h (0 Bft)
19.08.2012 21:50 17,9 C 76 % 0,0 l/m 0,0 km/h (0 Bft) N-NW 337 13,6 C 17,5 C 0,0 km/h (0 Bft)
19.08.2012 21:55 17,6 C 76 % 0,0 l/m 0,0 km/h (0 Bft) N-NO 22 13,3 C 17,4 C 0,0 km/h (0 Bft)
19.08.2012 22:00 17,5 C 77 % 0,0 l/m 0,0 km/h (0 Bft) N 360 13,4 C 17,2 C 0,0 km/h (0 Bft)
19.08.2012 22:05 17,2 C 77 % 0,0 l/m 0,0 km/h (0 Bft) S-SW 202 13,1 C 16,9 C 0,0 km/h (0 Bft)
19.08.2012 22:10 17,0 C 77 % 0,0 l/m 0,0 km/h (0 Bft) S-SW 202 12,9 C 16,7 C 0,0 km/h (0 Bft)
19.08.2012 22:15 17,0 C 79 % 0,0 l/m 0,0 km/h (0 Bft) N-NW 337 13,3 C 16,5 C 0,0 km/h (0 Bft)
19.08.2012 22:20 17,0 C 79 % 0,0 l/m 0,0 km/h (0 Bft) N 360 13,3 C 16,5 C 0,0 km/h (0 Bft)
19.08.2012 22:25 17,0 C 79 % 0,0 l/m 0,0 km/h (0 Bft) W-NW 292 13,3 C 16,5 C 0,0 km/h (0 Bft)
19.08.2012 22:30 17,0 C 79 % 0,0 l/m 0,0 km/h (0 Bft) N-NW 337 13,3 C 16,5 C 0,0 km/h (0 Bft)
19.08.2012 22:35 17,0 C 79 % 0,0 l/m 0,0 km/h (0 Bft) N 360 13,3 C 16,5 C 0,0 km/h (0 Bft)
19.08.2012 22:40 17,0 C 79 % 0,0 l/m 0,0 km/h (0 Bft) N-NW 337 13,3 C 16,5 C 0,0 km/h (0 Bft)
19.08.2012 22:45 17,0 C 79 % 0,0 l/m 0,0 km/h (0 Bft) NO 45 13,3 C 16,5 C 0,0 km/h (0 Bft)
19.08.2012 22:50 16,8 C 79 % 0,0 l/m 0,0 km/h (0 Bft) S-SO 157 13,1 C 16,5 C 0,0 km/h (0 Bft)
19.08.2012 22:55 16,8 C 79 % 0,0 l/m 0,0 km/h (0 Bft) S-SO 157 13,1 C 16,3 C 0,0 km/h (0 Bft)
19.08.2012 23:00 16,6 C 78 % 0,0 l/m 0,0 km/h (0 Bft) S 180 12,7 C 16,2 C 0,0 km/h (0 Bft)
19.08.2012 23:05 16,4 C 79 % 0,0 l/m 0,0 km/h (0 Bft) NW 315 12,7 C 16,1 C 0,0 km/h (0 Bft)
19.08.2012 23:10 16,6 C 79 % 0,0 l/m 0,0 km/h (0 Bft) N 360 12,9 C 16,1 C 0,0 km/h (0 Bft)
19.08.2012 23:15 16,6 C 79 % 0,0 l/m 0,2 km/h (0 Bft) N-NO 22 12,9 C 16,2 C 0,0 km/h (0 Bft)
19.08.2012 23:20 16,6 C 79 % 0,0 l/m 0,2 km/h (0 Bft) N-NO 22 12,9 C 16,2 C 0,0 km/h (0 Bft)
19.08.2012 23:25 16,4 C 79 % 0,0 l/m 0,0 km/h (0 Bft) N 360 12,7 C 16,0 C 0,0 km/h (0 Bft)
19.08.2012 23:30 16,3 C 79 % 0,0 l/m 0,0 km/h (0 Bft) W 270 12,6 C 16,0 C 0,0 km/h (0 Bft)
19.08.2012 23:35 16,2 C 79 % 0,0 l/m 0,0 km/h (0 Bft) N-NO 22 12,6 C 15,9 C 0,0 km/h (0 Bft)
19.08.2012 23:40 16,2 C 79 % 0,0 l/m 0,0 km/h (0 Bft) S-SW 202 12,6 C 15,9 C 0,0 km/h (0 Bft)
19.08.2012 23:45 16,3 C 80 % 0,0 l/m 0,0 km/h (0 Bft) W-NW 292 12,8 C 15,8 C 0,0 km/h (0 Bft)
19.08.2012 23:50 16,1 C 80 % 0,0 l/m 0,0 km/h (0 Bft) NW 315 12,6 C 15,8 C 0,0 km/h (0 Bft)
19.08.2012 23:55 16,3 C 80 % 0,0 l/m 0,0 km/h (0 Bft) N-NW 337 12,8 C 15,7 C 0,0 km/h (0 Bft)
_ Min-Zeit 06:10 15:40 - 23:55 - - 06:10 06:20 23:55
Minimum _ 11,2 C 31 % - 0,0 km/h (0 Bft) - - 9,9 C 11,0 C 0,0 km/h (0 Bft)
_ Max-Zeit 12:55 07:30 23:55 15:00 - - 12:55 12:05 16:15
Maximum _ 32,7 C 92 % 0,0 l/m 4,3 km/h
W-SW (1 Bft)
- - 18,8 C 35,7 C 10,6 km/h
N (2 Bft)
Durchschnitt _ 21,7 C 64 % #0,0 l/m 0,9 km/h (0 Bft) W-SW - 13,8 C 24,0 C 1,2 km/h (1 Bft)